Flag for Poland Weather past 2 weeks in Białystok, Poland

Now
29 °F

Snow flurries. Low clouds.


Feels Like: 29 °F
Forecast: 25 / 33 °F
Wind: 2 mph from Northwest

Location: Bialystok

Current Time: Jan 26, 2015 at 10:09:14 AM

Latest Report: Jan 26, 2015 at 9:00 AM


Visibility: 2 mi

Pressure: 30.22 "Hg

Humidity: 93%

Dew point: 28 °F

Location of BiałystokLocation

Historic Weather in Białystok — Graph

°F

Białystok temperature yesterday

Maximum temperature yesterday: 35 °F (at 1:00 PM)
Minimum temperature yesterday: 32 °F (at 11:00 PM)
Average temperature yesterday: 34 °F

Past Weeks' High & Low Weather Summary

 TemperatureHumidityPressure
High45 °F (Jan 13, 8:00 PM)100% (Jan 21, 12:00 PM)30.21 "Hg (Jan 21, 12:00 PM)
Low21 °F (Jan 19, 5:00 AM)60% (Jan 14, 6:00 AM)29.32 "Hg (Jan 11, 8:00 AM)
Average34 °F90%29.96 "Hg
* Reported Jan 11 8:00 AM — Jan 26 8:00 AM, Białystok, Weather by CustomWeather, © 2014

Note: Actual official high and low records may vary slightly from our data, if they occured in-between our weather recording intervals... More about our weather records

Advertising

Białystok weather history for previous 24 hours

 ConditionsComfort  
Time TempWeatherWind HumidityBarometerVisibility
8:00 AM
Jan 26
29 °FSnow flurries. Low clouds.2 mph95%30.21 "Hg2 mi
7:00 AM29 °FSnow flurries. Low clouds.2 mph93%30.20 "Hg3 mi
6:00 AM29 °FSnow flurries. Low clouds.2 mph95%30.19 "Hg3 mi
5:00 AM29 °FSnow flurries. Low clouds.1 mph94%30.19 "Hg2 mi
3:00 AM30 °FSnow flurries. Low clouds.1 mph96%30.17 "Hg2 mi
2:00 AM30 °FSnow flurries. Low clouds.2 mph97%30.16 "Hg2 mi
1:00 AM31 °FSnow flurries. Low clouds.2 mph99%30.15 "Hg1 mi
12:00 AM31 °FLight freezing rain. Low clouds.2 mph99%30.15 "Hg1 mi
11:00 PM
Jan 25
32 °FDrizzle. Low clouds.1 mph99%30.15 "Hg1 mi
10:00 PM32 °FDrizzle. Low clouds.1 mph99%30.14 "Hg1 mi
9:00 PM33 °FDrizzle. Low clouds.1 mph99%30.13 "Hg1 mi
8:00 PM33 °FFog.1 mph99%30.12 "Hg1 mi
7:00 PM33 °FFog.1 mph100%30.11 "Hg1 mi
6:00 PM34 °FDrizzle. Low clouds.1 mph99%30.11 "Hg1 mi
5:00 PM34 °FFog.1 mph100%30.10 "Hg1 mi
4:00 PM35 °FFog.1 mph99%30.08 "Hg1 mi
3:00 PM35 °FFog.1 mph99%30.07 "Hg1 mi
2:00 PM35 °FFog.1 mph99%30.06 "Hg2 mi
1:00 PM35 °FFog.1 mph99%30.06 "Hg2 mi
12:00 PM35 °FFog.1 mph99%30.06 "Hg1 mi
11:00 AM35 °FFog.1 mph100%30.07 "Hg1 mi
10:00 AM34 °FFog.1 mph100%30.07 "Hg1 mi
Weather by CustomWeather, © 2014

See weather overviewHow to use our weather pages